KM4NDN Weather Reports


Display with metric or nautical units.
time (UTC)temp
F
wind
direction
speed
MPH
gust
MPH
rain 1hr
in
rain 24hr
in
rain mn
in
humidity
%
barometer
mb
20260504080833 52 170 8.0 10.0 0.00 0.00 0.00 60 1006.5
20260504080331 52 184 11.0 16.0 0.00 0.00 0.00 60 1006.4
20260504070258 52 183 4.0 8.0 0.00 0.00 0.00 60 1006.9
20260504060218 52 191 5.0 10.0 0.00 0.00 0.00 60 1007.6
20260504050646 51 209 5.0 11.0 0.00 0.00 0.00 62 1008.6
20260504050143 51 194 3.0 10.0 0.00 0.00 0.00 62 1008.6
20260504045640 51 220 5.0 10.0 0.00 0.00 0.00 63 1008.6
20260504045140 51 182 12.0 15.0 0.00 0.00 0.00 63 1008.7
20260504044638 51 189 5.0 8.0 0.00 0.00 0.00 63 1008.8
20260504044135 51 170 9.0 13.0 0.00 0.00 0.00 63 1008.7
20260504043632 51 166 7.0 13.0 0.00 0.00 0.00 63 1008.9
20260504043129 51 174 9.0 11.0 0.00 0.00 0.00 64 1008.8
20260504042626 51 146 6.0 11.0 0.00 0.00 0.00 64 1008.9
20260504042123 51 181 8.0 14.0 0.00 0.00 0.00 63 1009.0
20260504041619 51 177 6.0 9.0 0.00 0.00 0.00 64 1008.9
20260504041115 51 127 4.0 11.0 0.00 0.00 0.00 64 1008.9
20260504040613 51 194 5.0 8.0 0.00 0.00 0.00 64 1008.8
20260504040109 51 213 4.0 10.0 0.00 0.00 0.00 65 1009.1
20260504035606 50 186 5.0 11.0 0.00 0.00 0.00 65 1009.1
20260504035102 50 118 6.0 10.0 0.00 0.00 0.00 67 1009.3
20260504034600 49 139 5.0 10.0 0.00 0.00 0.00 68 1009.2
20260504034057 49 170 3.0 4.0 0.00 0.00 0.00 71 1009.5
20260504033555 49 142 5.0 8.0 0.00 0.00 0.00 71 1009.4
20260504033052 49 163 2.0 9.0 0.00 0.00 0.00 71 1009.3
20260504032549 49 147 3.0 6.0 0.00 0.00 0.00 71 1009.3
20260504032046 49 144 3.0 6.0 0.00 0.00 0.00 70 1009.5
20260504031543 50 156 2.0 6.0 0.00 0.00 0.00 69 1009.5
20260504031039 50 142 2.0 3.0 0.00 0.00 0.00 69 1009.7
20260504030536 50 159 4.0 6.0 0.00 0.00 0.00 68 1009.7
20260504030032 50 171 5.0 7.0 0.00 0.00 0.00 68 1009.7
20260504025530 51 192 6.0 8.0 0.00 0.00 0.00 67 1009.8
20260504025026 51 137 5.0 7.0 0.00 0.00 0.00 66 1009.9
20260504024523 51 193 4.0 10.0 0.00 0.00 0.00 66 1009.9
20260504024020 51 137 2.0 7.0 0.00 0.00 0.00 66 1010.1
20260504023517 51 149 5.0 8.0 0.00 0.00 0.00 66 1010.0
20260504023013 51 183 2.0 3.0 0.00 0.00 0.00 65 1010.1
20260504022508 51 170 5.0 7.0 0.00 0.00 0.00 65 1010.2
20260504022005 51 178 4.0 7.0 0.00 0.00 0.00 65 1009.9
20260504021503 51 189 5.0 7.0 0.00 0.00 0.00 65 1010.1
20260504021000 51 190 5.0 6.0 0.00 0.00 0.00 66 1010.0
20260504020456 51 157 4.0 6.0 0.00 0.00 0.00 65 1010.0
20260504015953 51 212 5.0 7.0 0.00 0.00 0.00 65 1010.1
20260504015449 51 205 3.0 9.0 0.00 0.00 0.00 64 1010.2
20260504014945 51 195 6.0 8.0 0.00 0.00 0.00 63 1010.0
20260504014441 52 174 7.0 9.0 0.00 0.00 0.00 62 1009.9
20260504013938 52 254 6.0 9.0 0.00 0.00 0.00 62 1009.9
20260504013437 52 204 7.0 9.0 0.00 0.00 0.00 61 1010.2
20260504012932 52 219 4.0 14.0 0.00 0.00 0.00 61 1009.9
20260504012431 52 170 6.0 8.0 0.00 0.00 0.00 60 1010.0
20260504011928 52 193 9.0 10.0 0.00 0.00 0.00 59 1010.3
20260504011425 52 214 4.0 10.0 0.00 0.00 0.00 59 1010.2
20260504010920 52 230 10.0 14.0 0.00 0.00 0.00 59 1010.1
20260504010417 52 175 4.0 8.0 0.00 0.00 0.00 60 1010.4
20260504005913 52 236 2.0 7.0 0.00 0.00 0.00 61 1010.1
20260504005410 53 247 8.0 13.0 0.00 0.00 0.00 59 1010.3
20260504004908 53 244 5.0 9.0 0.00 0.00 0.00 58 1010.4
20260504004405 53 244 6.0 10.0 0.00 0.00 0.00 57 1010.3
20260504003901 53 217 17.0 19.0 0.00 0.00 0.00 56 1010.2
20260504003358 53 224 10.0 15.0 0.00 0.00 0.00 57 1010.3
20260504002855 53 210 12.0 19.0 0.00 0.00 0.00 56 1010.2
20260504002351 54 237 9.0 22.0 0.00 0.00 0.00 57 1010.2
20260504001849 54 199 10.0 14.0 0.00 0.00 0.00 59 1010.1
20260504001346 54 247 7.0 16.0 0.00 0.00 0.00 59 1010.2
20260504000843 54 264 11.0 18.0 0.00 0.00 0.00 59 1010.2
20260504000340 55 248 10.0 13.0 0.00 0.00 0.00 58 1010.1
20260503235838 55 250 16.0 22.0 0.00 0.00 0.00 57 1010.2
20260503235335 56 260 13.0 31.0 0.00 0.00 0.00 57 1010.1
20260503234832 56 217 14.0 17.0 0.00 0.00 0.00 57 1009.9
20260503234330 57 207 10.0 18.0 0.00 0.00 0.00 54 1009.9
20260503233828 58 239 7.0 13.0 0.00 0.00 0.00 40 1010.0
20260503233323 58 213 8.0 11.0 0.00 0.00 0.00 38 1009.5
20260503232820 58 243 9.0 16.0 0.00 0.00 0.00 37 1009.7
20260503232318 59 250 9.0 15.0 0.00 0.00 0.00 37 1009.7
20260503231815 59 232 13.0 16.0 0.00 0.00 0.00 35 1009.9
20260503231312 60 240 21.0 29.0 0.00 0.00 0.00 35 1009.8
20260503230808 60 255 18.0 24.0 0.00 0.00 0.00 35 1009.9
20260503230305 60 232 14.0 21.0 0.00 0.00 0.00 36 1009.9
20260503225803 59 225 14.0 25.0 0.00 0.00 0.00 36 1009.9
20260503225258 60 261 13.0 19.0 0.00 0.00 0.00 36 1010.0
20260503224755 60 236 11.0 19.0 0.00 0.00 0.00 36 1009.6
20260503224253 60 228 11.0 17.0 0.00 0.00 0.00 36 1010.0
20260503223750 61 214 13.0 18.0 0.00 0.00 0.00 36 1009.9
20260503223248 60 210 10.0 21.0 0.00 0.00 0.00 35 1009.9
20260503222743 61 190 16.0 24.0 0.00 0.00 0.00 34 1009.9
20260503222242 61 215 11.0 22.0 0.00 0.00 0.00 35 1009.9
20260503221740 61 214 17.0 19.0 0.00 0.00 0.00 34 1009.9
20260503221237 61 256 20.0 23.0 0.00 0.00 0.00 34 1009.9
20260503220733 61 242 15.0 23.0 0.00 0.00 0.00 35 1009.8
20260503220231 60 213 10.0 17.0 0.00 0.00 0.00 36 1010.0
20260503215727 60 186 9.0 22.0 0.00 0.00 0.00 36 1010.1
20260503215224 61 210 12.0 17.0 0.00 0.00 0.00 34 1010.1
20260503214722 61 226 9.0 21.0 0.00 0.00 0.00 36 1009.9
20260503214219 61 223 10.0 11.0 0.00 0.00 0.00 37 1010.1
20260503213717 60 237 12.0 15.0 0.00 0.00 0.00 36 1010.1
20260503213214 61 239 14.0 16.0 0.00 0.00 0.00 34 1010.0
20260503212711 61 216 9.0 13.0 0.00 0.00 0.00 37 1010.0
20260503212208 62 235 10.0 13.0 0.00 0.00 0.00 36 1010.2
20260503211706 61 215 14.0 19.0 0.00 0.00 0.00 35 1010.1
20260503211201 61 218 13.0 23.0 0.00 0.00 0.00 36 1010.0
20260503210658 61 201 19.0 25.0 0.00 0.00 0.00 33 1010.1
20260503210155 62 252 14.0 16.0 0.00 0.00 0.00 34 1010.2
20260503205650 61 200 8.0 21.0 0.00 0.00 0.00 35 1010.4
20260503205147 62 214 16.0 18.0 0.00 0.00 0.00 33 1010.3
20260503204643 62 223 13.0 23.0 0.00 0.00 0.00 34 1010.2
20260503204141 62 239 15.0 19.0 0.00 0.00 0.00 34 1010.3
20260503203638 62 275 13.0 25.0 0.00 0.00 0.00 34 1010.5
20260503203136 62 221 15.0 19.0 0.00 0.00 0.00 33 1010.5
20260503202633 62 221 12.0 16.0 0.00 0.00 0.00 35 1010.5
20260503202131 61 212 12.0 26.0 0.00 0.00 0.00 35 1010.5
20260503201628 61 242 13.0 14.0 0.00 0.00 0.00 36 1010.5
20260503201126 60 223 12.0 21.0 0.00 0.00 0.00 34 1010.7
20260503200621 61 223 12.0 23.0 0.00 0.00 0.00 33 1010.7
20260503200118 61 249 17.0 27.0 0.00 0.00 0.00 34 1010.5
20260503195615 62 222 13.0 18.0 0.00 0.00 0.00 33 1010.8
20260503195112 61 243 15.0 23.0 0.00 0.00 0.00 34 1010.7
20260503194609 61 213 16.0 26.0 0.00 0.00 0.00 33 1010.7
20260503194104 61 236 15.0 22.0 0.00 0.00 0.00 35 1010.9
20260503193601 61 215 16.0 22.0 0.00 0.00 0.00 35 1011.0
20260503193056 62 248 16.0 19.0 0.00 0.00 0.00 32 1011.2
20260503192552 62 223 18.0 24.0 0.00 0.00 0.00 34 1011.0
20260503192048 62 220 11.0 16.0 0.00 0.00 0.00 36 1011.3
20260503191545 61 249 15.0 19.0 0.00 0.00 0.00 35 1011.4
20260503191042 61 175 13.0 18.0 0.00 0.00 0.00 33 1011.3
20260503190539 61 225 9.0 21.0 0.00 0.00 0.00 35 1011.6
20260503190037 61 233 12.0 18.0 0.00 0.00 0.00 34 1011.4
20260503185533 61 241 19.0 25.0 0.00 0.00 0.00 33 1011.4
20260503185032 61 207 12.0 15.0 0.00 0.00 0.00 34 1011.9
20260503184529 61 236 11.0 21.0 0.00 0.00 0.00 35 1011.8
20260503184026 61 192 11.0 17.0 0.00 0.00 0.00 36 1011.8
20260503183522 61 237 17.0 29.0 0.00 0.00 0.00 34 1012.0
20260503183019 61 245 15.0 18.0 0.00 0.00 0.00 36 1011.8
20260503182518 61 275 8.0 21.0 0.00 0.00 0.00 37 1011.9
20260503182015 61 225 9.0 11.0 0.00 0.00 0.00 36 1011.8
20260503181512 61 182 18.0 21.0 0.00 0.00 0.00 35 1012.0
20260503181008 61 248 18.0 24.0 0.00 0.00 0.00 36 1011.9
20260503180506 60 214 10.0 21.0 0.00 0.00 0.00 37 1012.1
20260503180003 61 269 17.0 19.0 0.00 0.00 0.00 34 1012.1
20260503175501 60 202 9.0 14.0 0.00 0.00 0.00 37 1012.2
20260503174956 60 207 9.0 14.0 0.00 0.00 0.00 38 1012.4
20260503174455 61 252 14.0 17.0 0.00 0.00 0.00 36 1012.3
20260503173950 60 201 10.0 13.0 0.00 0.00 0.00 35 1012.3
20260503173446 60 266 12.0 14.0 0.00 0.00 0.00 37 1012.6
20260503172943 60 220 23.0 25.0 0.00 0.00 0.00 34 1012.8
20260503172440 60 233 16.0 21.0 0.00 0.00 0.00 37 1012.6
20260503171937 60 255 14.0 18.0 0.00 0.00 0.00 41 1012.8
20260503171433 60 242 13.0 16.0 0.00 0.00 0.00 40 1012.7
20260503170931 60 291 9.0 14.0 0.00 0.00 0.00 44 1012.9
20260503170427 59 245 14.0 16.0 0.00 0.00 0.00 41 1012.9
20260503150819 55 220 15.0 17.0 0.00 0.00 0.00 47 1014.1
20260503150315 54 233 9.0 15.0 0.00 0.00 0.00 48 1014.0
20260503140240 51 220 10.0 16.0 0.00 0.00 0.00 50 1014.2
20260503131209 48 240 9.0 18.0 0.00 0.00 0.00 54 1014.2
20260503130707 47 221 7.0 16.0 0.00 0.00 0.00 53 1014.3
20260503130204 47 196 8.0 11.0 0.00 0.00 0.00 55 1014.5
20260503120130 42 222 6.0 10.0 0.00 0.00 0.00 63 1014.8
20260503110557 36 197 2.0 3.0 0.00 0.00 0.00 73 1014.4
20260503090444 37 191 4.0 7.0 0.00 0.00 0.00 74 1014.4
20260503081410 37 216 5.0 6.0 0.00 0.00 0.00 73 1014.4